WMT326 LROP-GCLP

Flight info

Callsign WMT326
Flight time N/A
Altitude 35000
Route POLUN Z944 TIMUR N731 LETNI P92 SKJ DCT MAVAR DCT EBELA DCT ROBOT DCT EVINO DCT ROSAS DCT PININ M725 SUSIP UM725 TUC W254 TISRI UW254 CSO UA31 BABOR UZ888 ORSUP UA411 FES UG850 ADM UN869 RUSIK
Aircraft A21N/M-SDE1E2E3FGIJ1J4RWXY/LB1

Departure

Time 2026-05-08 08:41
Airport Bucharest Henri Coandă International Airport (LROP)

Arrival

Time N/A
Airport Gran Canaria Airport (GCLP)
Time Latitude Longitude Altitude Speed Heading
2026-05-08 08:25 44.57008 26.07961 320 ft 0 kts 355°
2026-05-08 08:31 44.56998 26.07963 320 ft 2 kts 354°
2026-05-08 08:31 44.56983 26.07965 320 ft 2 kts 354°
2026-05-08 08:31 44.56968 26.07967 320 ft 2 kts 354°
2026-05-08 08:32 44.56953 26.07969 320 ft 2 kts 354°
2026-05-08 08:32 44.56939 26.07971 320 ft 2 kts 354°
2026-05-08 08:32 44.56924 26.07973 320 ft 2 kts 354°
2026-05-08 08:32 44.56909 26.07975 320 ft 2 kts 354°
2026-05-08 08:33 44.56898 26.07976 320 ft 0 kts 354°
2026-05-08 08:33 44.56897 26.07976 320 ft 0 kts 354°
2026-05-08 08:34 44.56898 26.07976 320 ft 0 kts 354°
2026-05-08 08:35 44.56904 26.07976 320 ft 0 kts
2026-05-08 08:35 44.56913 26.07982 320 ft 4 kts 34°
2026-05-08 08:35 44.56934 26.08056 320 ft 8 kts 79°
2026-05-08 08:35 44.56945 26.08141 320 ft 8 kts 80°
2026-05-08 08:36 44.56944 26.08228 320 ft 9 kts 88°
2026-05-08 08:36 44.56952 26.08317 320 ft 9 kts 81°
2026-05-08 08:36 44.56988 26.08383 320 ft 9 kts 15°
2026-05-08 08:36 44.57059 26.08380 320 ft 11 kts 350°
2026-05-08 08:37 44.57136 26.08369 320 ft 11 kts 355°
2026-05-08 08:37 44.57210 26.08374 320 ft 10 kts 39°
2026-05-08 08:37 44.57233 26.08467 320 ft 10 kts 73°
2026-05-08 08:37 44.57294 26.08495 320 ft 10 kts 352°
2026-05-08 08:38 44.57366 26.08482 320 ft 10 kts 354°
2026-05-08 08:38 44.57430 26.08474 320 ft 7 kts 354°
2026-05-08 08:38 44.57484 26.08466 320 ft 7 kts 354°
2026-05-08 08:38 44.57541 26.08458 320 ft 9 kts 354°
2026-05-08 08:39 44.57612 26.08448 320 ft 10 kts 354°
2026-05-08 08:39 44.57668 26.08483 320 ft 9 kts 71°
2026-05-08 08:39 44.57674 26.08573 320 ft 8 kts 82°
2026-05-08 08:39 44.57677 26.08601 320 ft 0 kts 83°
2026-05-08 08:40 44.57692 26.08808 320 ft 55 kts 84°
2026-05-08 08:40 44.57757 26.09676 320 ft 121 kts 84°
2026-05-08 08:40 44.57866 26.11129 321 ft 175 kts 84°
2026-05-08 08:40 44.57997 26.12953 625 ft 194 kts 84°
2026-05-08 08:41 44.58139 26.14833 1313 ft 194 kts 83°
2026-05-08 08:41 44.58295 26.16664 2087 ft 191 kts 83°
2026-05-08 08:41 44.58455 26.18529 2477 ft 199 kts 83°
2026-05-08 08:41 44.58623 26.20555 2756 ft 214 kts 83°
2026-05-08 08:42 44.58796 26.22690 3006 ft 230 kts 83°
2026-05-08 08:42 44.58982 26.25022 3280 ft 248 kts 83°
2026-05-08 08:42 44.59178 26.27497 3637 ft 264 kts 83°
2026-05-08 08:42 44.59154 26.30075 4213 ft 269 kts 105°
2026-05-08 08:43 44.58244 26.32337 4883 ft 271 kts 135°
2026-05-08 08:43 44.56669 26.33714 5530 ft 273 kts 163°
2026-05-08 08:43 44.54800 26.34127 6186 ft 275 kts 174°
2026-05-08 08:43 44.52884 26.34345 6824 ft 279 kts 175°
2026-05-08 08:44 44.50948 26.34567 7467 ft 282 kts 174°
2026-05-08 08:44 44.48998 26.34814 8112 ft 284 kts 174°
2026-05-08 08:44 44.47035 26.35081 8747 ft 286 kts 173°
2026-05-08 08:44 44.45040 26.35362 9372 ft 289 kts 173°
2026-05-08 08:45 44.43056 26.35646 9977 ft 291 kts 173°
2026-05-08 08:45 44.41046 26.35927 10497 ft 296 kts 175°
2026-05-08 08:45 44.38954 26.35634 10735 ft 312 kts 198°
2026-05-08 08:45 44.37029 26.34154 10975 ft 327 kts 221°
2026-05-08 08:46 44.35619 26.31593 11207 ft 341 kts 245°
2026-05-08 08:46 44.34861 26.28420 11464 ft 353 kts 254°
2026-05-08 08:46 44.34207 26.25063 11693 ft 366 kts 254°
2026-05-08 08:46 44.33522 26.21538 11917 ft 379 kts 254°
2026-05-08 08:47 44.32809 26.17949 12126 ft 390 kts 254°
2026-05-08 08:47 44.32059 26.14246 12328 ft 402 kts 253°
2026-05-08 08:47 44.31284 26.10461 12550 ft 411 kts 253°
2026-05-08 08:47 44.30489 26.06608 12953 ft 415 kts 253°
2026-05-08 08:48 44.29689 26.02752 13424 ft 417 kts 253°
2026-05-08 08:48 44.28877 25.98847 13867 ft 419 kts 253°
2026-05-08 08:48 44.28070 25.94979 14285 ft 422 kts 253°
2026-05-08 08:48 44.27242 25.91020 14705 ft 424 kts 253°
2026-05-08 08:49 44.26409 25.87053 15114 ft 427 kts 253°
2026-05-08 08:49 44.25585 25.83127 15503 ft 429 kts 253°
2026-05-08 08:49 44.24831 25.79090 15889 ft 432 kts 257°
2026-05-08 08:49 44.24333 25.74958 16263 ft 434 kts 263°
2026-05-08 08:50 44.24115 25.70752 16629 ft 437 kts 268°
2026-05-08 08:50 44.24063 25.66508 16991 ft 439 kts 269°
2026-05-08 08:50 44.24047 25.62244 17339 ft 441 kts 269°
2026-05-08 08:50 44.24032 25.57954 17677 ft 443 kts 269°
2026-05-08 08:51 44.24010 25.53639 18008 ft 445 kts 269°
2026-05-08 08:51 44.23982 25.49372 18332 ft 447 kts 269°
2026-05-08 08:51 44.23950 25.45028 18644 ft 449 kts 269°
2026-05-08 08:51 44.23914 25.40655 18945 ft 451 kts 269°
2026-05-08 08:52 44.23875 25.36291 19241 ft 452 kts 268°
2026-05-08 08:52 44.23832 25.31885 19543 ft 454 kts 268°
2026-05-08 08:52 44.23742 25.27530 19823 ft 455 kts 263°
2026-05-08 08:52 44.23135 25.23209 20078 ft 455 kts 251°
2026-05-08 08:53 44.21885 25.19187 20351 ft 454 kts 239°
2026-05-08 08:53 44.20116 25.15576 20626 ft 454 kts 232°
2026-05-08 08:53 44.18195 25.12083 20880 ft 455 kts 231°
2026-05-08 08:53 44.16249 25.08602 21111 ft 457 kts 230°
2026-05-08 08:54 44.14302 25.05118 21343 ft 459 kts 230°
2026-05-08 08:54 44.12334 25.01585 21573 ft 461 kts 230°
2026-05-08 08:54 44.10366 24.98043 21802 ft 462 kts 230°
2026-05-08 08:54 44.08422 24.94538 22014 ft 464 kts 231°
2026-05-08 08:55 44.06444 24.90973 22235 ft 465 kts 231°
2026-05-08 08:55 44.04485 24.87441 22468 ft 466 kts 231°
2026-05-08 08:55 44.02502 24.83869 22691 ft 467 kts 231°
2026-05-08 08:55 44.00509 24.80281 22901 ft 468 kts 231°
2026-05-08 08:56 43.98514 24.76696 23108 ft 469 kts 231°
2026-05-08 08:56 43.96529 24.73130 23308 ft 470 kts 231°
2026-05-08 08:56 43.94539 24.69561 23510 ft 471 kts 231°
2026-05-08 08:56 43.92530 24.65963 23782 ft 470 kts 231°
2026-05-08 08:57 43.90556 24.62430 24091 ft 468 kts 231°
2026-05-08 08:57 43.88564 24.58870 24396 ft 466 kts 231°
2026-05-08 08:57 43.86578 24.55320 24686 ft 465 kts 231°
2026-05-08 08:57 43.84601 24.51794 24966 ft 464 kts 231°
2026-05-08 08:58 43.82630 24.48283 25252 ft 463 kts 231°
2026-05-08 08:58 43.80652 24.44766 25550 ft 461 kts 231°
2026-05-08 08:58 43.78688 24.41276 25838 ft 460 kts 231°
2026-05-08 08:58 43.76730 24.37804 26111 ft 459 kts 231°
2026-05-08 08:59 43.74770 24.34334 26382 ft 458 kts 230°
2026-05-08 08:59 43.72814 24.30874 26656 ft 457 kts 230°
2026-05-08 08:59 43.70839 24.27499 26922 ft 455 kts 227°
2026-05-08 08:59 43.68678 24.24278 27186 ft 453 kts 223°
2026-05-08 09:00 43.66389 24.21337 27443 ft 451 kts 219°
2026-05-08 09:00 43.63978 24.18633 27715 ft 450 kts 217°
2026-05-08 09:00 43.61508 24.15965 27990 ft 448 kts 217°
2026-05-08 09:00 43.59082 24.13358 28234 ft 448 kts 217°
2026-05-08 09:01 43.56614 24.10707 28475 ft 447 kts 217°
2026-05-08 09:01 43.54182 24.08097 28733 ft 446 kts 217°
2026-05-08 09:01 43.51738 24.05473 28991 ft 445 kts 217°
2026-05-08 09:01 43.49330 24.02891 29240 ft 444 kts 217°
2026-05-08 09:02 43.46888 24.00274 29483 ft 444 kts 217°
2026-05-08 09:02 43.44454 23.97669 29733 ft 443 kts 217°
2026-05-08 09:02 43.42047 23.95098 29992 ft 442 kts 218°
2026-05-08 09:02 43.39610 23.92496 30262 ft 440 kts 218°
2026-05-08 09:03 43.37217 23.89942 30524 ft 439 kts 218°
2026-05-08 09:03 43.34805 23.87371 30760 ft 439 kts 218°
2026-05-08 09:03 43.32416 23.84829 30981 ft 438 kts 218°
2026-05-08 09:03 43.30025 23.82285 31208 ft 438 kts 218°
2026-05-08 09:04 43.27617 23.79735 31437 ft 437 kts 218°
2026-05-08 09:04 43.25189 23.77209 31682 ft 436 kts 217°
2026-05-08 09:04 43.22778 23.74720 31908 ft 435 kts 217°
2026-05-08 09:04 43.20364 23.72234 32114 ft 435 kts 218°
2026-05-08 09:05 43.17969 23.69765 32324 ft 434 kts 217°
2026-05-08 09:05 43.15560 23.67286 32522 ft 434 kts 218°
2026-05-08 09:05 43.13167 23.64826 32726 ft 434 kts 217°
2026-05-08 09:05 43.10758 23.62354 32945 ft 433 kts 218°
2026-05-08 09:06 43.08359 23.59889 33139 ft 433 kts 218°
2026-05-08 09:06 43.05944 23.57410 33322 ft 433 kts 218°
2026-05-08 09:06 43.03543 23.54946 33480 ft 433 kts 218°
2026-05-08 09:06 43.01165 23.52512 33619 ft 434 kts 218°
2026-05-08 09:07 42.98725 23.50020 33769 ft 434 kts 219°
2026-05-08 09:07 42.96327 23.47570 33905 ft 435 kts 219°
2026-05-08 09:07 42.93925 23.45118 34046 ft 435 kts 219°
2026-05-08 09:07 42.91517 23.42664 34185 ft 435 kts 220°
2026-05-08 09:08 42.89074 23.40172 34291 ft 436 kts 220°
2026-05-08 09:08 42.86649 23.37702 34388 ft 437 kts 220°
2026-05-08 09:08 42.81807 23.32775 34591 ft 438 kts 219°
2026-05-08 09:09 42.79359 23.30286 34716 ft 438 kts 219°
2026-05-08 09:09 42.76923 23.27814 34828 ft 439 kts 219°
2026-05-08 09:09 42.74480 23.25339 34935 ft 439 kts 219°
2026-05-08 09:09 42.72028 23.22857 35050 ft 439 kts 219°
2026-05-08 09:10 42.67135 23.17911 35101 ft 440 kts 219°
2026-05-08 09:10 42.62247 23.12983 35102 ft 440 kts 219°
2026-05-08 09:11 42.57330 23.08033 35103 ft 441 kts 219°
2026-05-08 09:11 42.52438 23.03119 35102 ft 441 kts 219°
2026-05-08 09:12 42.47516 22.98187 35102 ft 443 kts 219°
2026-05-08 09:12 42.42564 22.93231 35102 ft 446 kts 219°
2026-05-08 09:13 42.37581 22.88257 35102 ft 448 kts 219°
2026-05-08 09:13 42.32555 22.83246 35101 ft 451 kts 219°
2026-05-08 09:14 42.27487 22.78206 35103 ft 454 kts 219°
2026-05-08 09:14 42.22423 22.73185 35104 ft 454 kts 219°
2026-05-08 09:15 42.17366 22.68145 35101 ft 453 kts 221°
2026-05-08 09:15 42.12927 22.62233 35103 ft 449 kts 234°
2026-05-08 09:16 42.09595 22.55182 35102 ft 445 kts 246°
2026-05-08 09:16 42.07533 22.47454 35103 ft 442 kts 258°
2026-05-08 09:17 42.06196 22.39379 35103 ft 442 kts 259°
2026-05-08 09:17 42.04905 22.31348 35104 ft 441 kts 259°
2026-05-08 09:18 42.03584 22.23259 35103 ft 441 kts 259°
2026-05-08 09:18 42.02262 22.15237 35103 ft 442 kts 259°
2026-05-08 09:19 42.00926 22.07184 35102 ft 442 kts 258°
2026-05-08 09:19 41.99585 21.99139 35103 ft 441 kts 259°
2026-05-08 09:20 41.98245 21.91138 35102 ft 442 kts 259°
2026-05-08 09:20 41.96891 21.83080 35103 ft 442 kts 259°
2026-05-08 09:21 41.95536 21.75074 35104 ft 442 kts 259°
2026-05-08 09:23 41.89779 21.47308 35103 ft 442 kts 254°
2026-05-08 09:23 41.87914 21.39452 35103 ft 443 kts 254°
2026-05-08 09:24 41.86033 21.31545 35102 ft 443 kts 253°
2026-05-08 09:24 41.84170 21.23743 35103 ft 443 kts 254°
2026-05-08 09:25 41.82292 21.15899 35104 ft 443 kts 254°
2026-05-08 09:25 41.80396 21.08018 35104 ft 443 kts 254°
2026-05-08 09:26 41.78499 21.00193 35102 ft 446 kts 256°
2026-05-08 09:26 41.76575 20.92249 35104 ft 452 kts 257°
2026-05-08 09:27 41.74636 20.84236 35114 ft 458 kts 257°
2026-05-08 09:27 41.72650 20.76054 35124 ft 463 kts 257°
2026-05-08 09:28 41.70657 20.67906 35127 ft 464 kts 257°
2026-05-08 09:28 41.68645 20.59708 35128 ft 463 kts 257°
2026-05-08 09:29 41.66583 20.51570 35128 ft 465 kts 255°
2026-05-08 09:29 41.64292 20.43511 35128 ft 464 kts 254°
2026-05-08 09:30 41.61990 20.35485 35128 ft 466 kts 254°
2026-05-08 09:30 41.59666 20.27401 35119 ft 465 kts 253°
2026-05-08 09:31 41.57336 20.19319 35098 ft 466 kts 253°
2026-05-08 09:31 41.55005 20.11254 35075 ft 466 kts 253°
2026-05-08 09:32 41.52671 20.03208 35061 ft 467 kts 253°
2026-05-08 09:32 41.50333 19.95171 35053 ft 466 kts 253°
2026-05-08 09:33 41.47984 19.87120 35050 ft 466 kts 253°
2026-05-08 09:33 41.45640 19.79114 35052 ft 466 kts 253°
2026-05-08 09:34 41.43289 19.71104 35049 ft 466 kts 253°
2026-05-08 09:34 41.40926 19.63081 35052 ft 467 kts 253°
2026-05-08 09:35 41.38549 19.55040 35048 ft 466 kts 253°
2026-05-08 09:35 41.36124 19.46857 35050 ft 467 kts 253°
2026-05-08 09:36 41.33671 19.38609 35051 ft 466 kts 253°
2026-05-08 09:36 41.31275 19.30574 35050 ft 466 kts 253°
2026-05-08 09:37 41.28876 19.22560 35051 ft 466 kts 253°
2026-05-08 09:37 41.26477 19.14582 35050 ft 468 kts 254°
2026-05-08 09:38 41.24018 19.06452 35050 ft 471 kts 256°
2026-05-08 09:38 41.21590 18.98406 35048 ft 476 kts 257°
2026-05-08 09:39 41.19101 18.90173 35048 ft 482 kts 257°
2026-05-08 09:39 41.16466 18.82036 35033 ft 483 kts 256°
2026-05-08 09:40 41.13760 18.73878 35006 ft 483 kts 256°
2026-05-08 09:40 41.11068 18.65751 34975 ft 483 kts 256°
2026-05-08 09:41 41.08380 18.57630 34954 ft 484 kts 256°
2026-05-08 09:41 41.05669 18.49465 34947 ft 484 kts 256°
2026-05-08 09:42 41.02955 18.41305 34941 ft 485 kts 256°
2026-05-08 09:42 41.00234 18.33150 34942 ft 485 kts 255°
2026-05-08 09:43 40.97508 18.25007 34941 ft 487 kts 255°
2026-05-08 09:43 40.94765 18.16839 34941 ft 487 kts 255°
2026-05-08 09:44 40.92032 18.08723 34942 ft 487 kts 255°
2026-05-08 09:44 40.89264 18.00532 34936 ft 487 kts 255°
2026-05-08 09:45 40.86514 17.92408 34942 ft 487 kts 255°
2026-05-08 09:45 40.83748 17.84268 34941 ft 487 kts 255°
2026-05-08 09:46 40.80988 17.76166 34941 ft 486 kts 255°
2026-05-08 09:46 40.78211 17.68035 34940 ft 487 kts 255°
2026-05-08 09:47 40.75418 17.59885 34935 ft 487 kts 255°
2026-05-08 09:47 40.72644 17.51818 34927 ft 487 kts 255°
2026-05-08 09:48 40.69563 17.43783 34920 ft 495 kts 249°
2026-05-08 09:48 40.66070 17.35986 34915 ft 496 kts 249°
2026-05-08 09:49 40.62543 17.28188 34914 ft 496 kts 248°
2026-05-08 09:49 40.59013 17.20385 34914 ft 496 kts 248°
2026-05-08 09:50 40.55492 17.12606 34924 ft 496 kts 248°
2026-05-08 09:50 40.51959 17.04820 34938 ft 496 kts 248°
2026-05-08 09:51 40.48436 16.97086 34952 ft 496 kts 249°
2026-05-08 09:51 40.44893 16.89324 34959 ft 497 kts 249°
2026-05-08 09:52 40.41345 16.81566 34964 ft 497 kts 250°
2026-05-08 09:52 40.37804 16.73833 34964 ft 497 kts 250°
2026-05-08 09:53 40.34248 16.66081 34963 ft 496 kts 250°
2026-05-08 09:53 40.30685 16.58336 34965 ft 497 kts 250°
2026-05-08 09:54 40.27124 16.50626 34966 ft 496 kts 250°
2026-05-08 09:54 40.23553 16.42908 34967 ft 497 kts 250°
2026-05-08 09:55 40.19978 16.35201 34965 ft 496 kts 250°
2026-05-08 09:55 40.16410 16.27525 34963 ft 499 kts 249°
2026-05-08 09:56 40.12793 16.19771 34965 ft 498 kts 249°
2026-05-08 09:56 40.09182 16.12050 34967 ft 498 kts 250°
2026-05-08 09:57 40.03772 16.00510 34964 ft 499 kts 249°
2026-05-08 09:57 40.00152 15.92814 34962 ft 499 kts 250°
2026-05-08 09:58 39.96551 15.85185 34956 ft 497 kts 250°
2026-05-08 09:58 39.92907 15.77466 34953 ft 499 kts 249°
2026-05-08 09:59 39.89274 15.69803 34945 ft 498 kts 250°
2026-05-08 09:59 39.85639 15.62151 34946 ft 498 kts 250°
2026-05-08 10:00 39.81994 15.54494 34946 ft 499 kts 249°
2026-05-08 10:00 39.78352 15.46866 34943 ft 498 kts 250°
2026-05-08 10:01 39.74707 15.39245 34942 ft 500 kts 249°
2026-05-08 10:01 39.71048 15.31624 34943 ft 498 kts 249°
2026-05-08 10:02 39.67424 15.23948 34941 ft 500 kts 249°
2026-05-08 10:02 39.63822 15.16294 34944 ft 500 kts 249°
2026-05-08 10:03 39.60201 15.08642 34945 ft 499 kts 249°
2026-05-08 10:03 39.56588 15.01021 34943 ft 493 kts 249°
2026-05-08 10:04 39.53017 14.93511 34943 ft 489 kts 248°
2026-05-08 10:04 39.49472 14.86081 34942 ft 483 kts 248°
2026-05-08 10:05 39.45964 14.78745 34942 ft 482 kts 248°
2026-05-08 10:05 39.42435 14.71379 34942 ft 482 kts 248°
2026-05-08 10:06 39.38916 14.64045 34941 ft 483 kts 248°
2026-05-08 10:06 39.35367 14.56674 34941 ft 484 kts 248°
2026-05-08 10:07 39.31831 14.49349 34942 ft 482 kts 248°
2026-05-08 10:07 39.28287 14.42019 34942 ft 482 kts 248°
2026-05-08 10:08 39.24737 14.34699 34938 ft 481 kts 247°
2026-05-08 10:08 39.21175 14.27362 34943 ft 482 kts 247°
2026-05-08 10:09 39.17625 14.20071 34947 ft 482 kts 247°
2026-05-08 10:09 39.14064 14.12772 34959 ft 483 kts 247°
2026-05-08 10:10 39.10492 14.05475 34963 ft 483 kts 247°
2026-05-08 10:10 39.06918 13.98185 34964 ft 483 kts 247°
2026-05-08 10:11 39.03341 13.90907 34961 ft 483 kts 247°
2026-05-08 10:11 38.99749 13.83609 34967 ft 484 kts 247°
2026-05-08 10:12 38.96155 13.76329 34964 ft 485 kts 246°
2026-05-08 10:12 38.92540 13.69022 34966 ft 486 kts 246°
2026-05-08 10:13 38.88891 13.61664 34960 ft 488 kts 246°
2026-05-08 10:13 38.85282 13.54334 34965 ft 485 kts 248°
2026-05-08 10:14 38.82060 13.46806 34966 ft 482 kts 251°
2026-05-08 10:14 38.78910 13.39208 34967 ft 483 kts 251°
2026-05-08 10:15 38.75762 13.31644 34965 ft 483 kts 250°
2026-05-08 10:15 38.72594 13.24061 34965 ft 484 kts 250°
2026-05-08 10:16 38.69436 13.16529 34965 ft 483 kts 250°
2026-05-08 10:16 38.66268 13.08985 34968 ft 480 kts 250°
2026-05-08 10:17 38.63112 13.01493 34967 ft 477 kts 249°
2026-05-08 10:17 38.59995 12.94111 34967 ft 473 kts 249°
2026-05-08 10:18 38.56879 12.86758 34966 ft 473 kts 249°
2026-05-08 10:18 38.53748 12.79382 34966 ft 472 kts 249°
2026-05-08 10:19 38.50610 12.72004 34966 ft 473 kts 249°
2026-05-08 10:20 38.45928 12.61029 34966 ft 472 kts 249°
2026-05-08 10:20 38.42771 12.53647 34966 ft 472 kts 249°
2026-05-08 10:21 38.39626 12.46314 34966 ft 472 kts 249°
2026-05-08 10:21 38.36480 12.38994 34966 ft 473 kts 249°
2026-05-08 10:22 38.33324 12.31668 34966 ft 473 kts 248°
2026-05-08 10:22 38.30182 12.24391 34966 ft 473 kts 248°
2026-05-08 10:23 38.26999 12.17037 34965 ft 473 kts 248°
2026-05-08 10:23 38.23834 12.09740 34966 ft 474 kts 248°
2026-05-08 10:24 38.20663 12.02449 34966 ft 473 kts 248°
2026-05-08 10:24 38.17479 11.95142 34966 ft 473 kts 248°
2026-05-08 10:25 38.14290 11.87840 34966 ft 473 kts 248°
2026-05-08 10:25 38.11098 11.80550 34967 ft 473 kts 248°
2026-05-08 10:26 38.07910 11.73284 34966 ft 473 kts 248°
2026-05-08 10:26 38.04725 11.66042 34966 ft 473 kts 248°
2026-05-08 10:27 38.01510 11.58750 34966 ft 473 kts 248°
2026-05-08 10:27 37.98306 11.51499 34966 ft 473 kts 248°
2026-05-08 10:28 37.94829 11.44379 34967 ft 479 kts 242°
2026-05-08 10:28 37.90698 11.37736 34967 ft 486 kts 235°
2026-05-08 10:29 37.85875 11.31628 34969 ft 493 kts 227°
2026-05-08 10:29 37.80713 11.25987 34979 ft 494 kts 226°
2026-05-08 10:30 37.75526 11.20334 34994 ft 494 kts 227°
2026-05-08 10:30 37.70338 11.14661 35004 ft 494 kts 227°
2026-05-08 10:31 37.65149 11.08994 35005 ft 494 kts 227°
2026-05-08 10:31 37.59990 11.03379 35003 ft 494 kts 227°
2026-05-08 10:32 37.54814 10.97760 35001 ft 491 kts 227°
2026-05-08 10:32 37.49658 10.92172 34998 ft 487 kts 227°
2026-05-08 10:33 37.44573 10.86671 34998 ft 483 kts 226°
2026-05-08 10:33 37.39492 10.81184 34998 ft 480 kts 226°
2026-05-08 10:34 37.34443 10.75742 34997 ft 477 kts 226°
2026-05-08 10:34 37.29428 10.70346 34996 ft 477 kts 226°
2026-05-08 10:35 37.24396 10.64943 34996 ft 477 kts 226°
2026-05-08 10:35 37.19368 10.59555 34996 ft 477 kts 226°
2026-05-08 10:36 37.14339 10.54175 34996 ft 477 kts 226°
2026-05-08 10:36 37.09283 10.48774 34995 ft 478 kts 226°
2026-05-08 10:37 37.04225 10.43376 34995 ft 481 kts 226°
2026-05-08 10:37 36.99155 10.37980 34995 ft 484 kts 225°
2026-05-08 10:38 36.94011 10.32521 34995 ft 487 kts 224°
2026-05-08 10:38 36.89164 10.26712 34993 ft 481 kts 234°
2026-05-08 10:39 36.85326 10.19947 34995 ft 473 kts 245°
2026-05-08 10:39 36.82672 10.12572 34995 ft 465 kts 257°
2026-05-08 10:40 36.80853 10.04892 34996 ft 463 kts 259°
2026-05-08 10:40 36.79102 9.97164 34996 ft 463 kts 259°
2026-05-08 10:41 36.77329 9.89468 34996 ft 463 kts 259°
2026-05-08 10:41 36.75534 9.81759 34996 ft 463 kts 259°
2026-05-08 10:42 36.73742 9.74100 34996 ft 463 kts 259°
2026-05-08 10:42 36.71937 9.66411 34996 ft 463 kts 259°
2026-05-08 10:43 36.70132 9.58751 34996 ft 463 kts 259°
2026-05-08 10:43 36.68310 9.51045 34996 ft 463 kts 259°
2026-05-08 10:44 36.66494 9.43388 35002 ft 463 kts 259°
2026-05-08 10:44 36.64659 9.35676 35009 ft 463 kts 259°
2026-05-08 10:45 36.62836 9.28052 35015 ft 463 kts 258°
2026-05-08 10:45 36.60995 9.20383 35019 ft 464 kts 258°
2026-05-08 10:46 36.59143 9.12701 35021 ft 463 kts 258°
2026-05-08 10:46 36.57303 9.05072 35020 ft 464 kts 258°
2026-05-08 10:47 36.55439 8.97392 35020 ft 464 kts 257°
2026-05-08 10:47 36.53572 8.89719 35021 ft 464 kts 257°
2026-05-08 10:48 36.51710 8.82089 35021 ft 464 kts 257°
2026-05-08 10:48 36.49830 8.74423 35021 ft 464 kts 257°
2026-05-08 10:49 36.47950 8.66775 35020 ft 464 kts 257°
2026-05-08 10:49 36.46069 8.59145 35020 ft 464 kts 257°
2026-05-08 10:50 36.44185 8.51519 35021 ft 464 kts 257°
2026-05-08 10:50 36.42283 8.43827 35020 ft 464 kts 257°
2026-05-08 10:51 36.40803 8.36130 35021 ft 461 kts 264°
2026-05-08 10:51 36.40000 8.28253 35020 ft 458 kts 269°
2026-05-08 10:52 36.39551 8.20379 35021 ft 458 kts 269°
2026-05-08 10:52 36.39108 8.12535 35021 ft 458 kts 269°
2026-05-08 10:53 36.38653 8.04668 35020 ft 458 kts 269°
2026-05-08 10:53 36.38189 7.96795 35021 ft 458 kts 269°
2026-05-08 10:54 36.37720 7.88934 35021 ft 458 kts 269°
2026-05-08 10:54 36.37245 7.81078 35021 ft 458 kts 269°
2026-05-08 10:55 36.36766 7.73218 35021 ft 458 kts 269°
2026-05-08 10:55 36.36280 7.65360 35021 ft 458 kts 269°
2026-05-08 10:56 36.35788 7.57485 35021 ft 458 kts 269°
2026-05-08 10:56 36.35296 7.49682 35021 ft 458 kts 269°
2026-05-08 10:57 36.34794 7.41797 35021 ft 458 kts 269°
2026-05-08 10:57 36.34032 7.30005 35031 ft 458 kts 269°
2026-05-08 10:58 36.33518 7.22133 35044 ft 458 kts 269°
2026-05-08 10:58 36.33001 7.14282 35057 ft 459 kts 268°
2026-05-08 10:59 36.32482 7.06425 35068 ft 461 kts 268°
2026-05-08 10:59 36.31950 6.98517 35072 ft 462 kts 267°
2026-05-08 11:00 36.31406 6.90567 35075 ft 462 kts 266°
2026-05-08 11:00 36.30855 6.82635 35075 ft 462 kts 266°
2026-05-08 11:01 36.30306 6.74751 35075 ft 462 kts 266°
2026-05-08 11:01 36.29792 6.66838 35075 ft 462 kts 269°
2026-05-08 11:02 36.30069 6.54947 35075 ft 460 kts 278°
2026-05-08 11:03 36.30972 6.47100 35076 ft 459 kts 280°
2026-05-08 11:03 36.31930 6.39309 35076 ft 459 kts 280°
2026-05-08 11:04 36.32882 6.31466 35075 ft 459 kts 279°
2026-05-08 11:04 36.33821 6.23647 35075 ft 460 kts 279°
2026-05-08 11:05 36.34752 6.15821 35073 ft 459 kts 279°
2026-05-08 11:05 36.35679 6.07996 35064 ft 459 kts 279°
2026-05-08 11:06 36.36593 6.00221 35050 ft 459 kts 279°
2026-05-08 11:06 36.37509 5.92387 35037 ft 460 kts 279°
2026-05-08 11:07 36.38424 5.84520 35035 ft 460 kts 280°
2026-05-08 11:07 36.39376 5.76693 35040 ft 459 kts 280°
2026-05-08 11:08 36.40328 5.68887 35046 ft 460 kts 280°
2026-05-08 11:08 36.41277 5.61041 35052 ft 459 kts 280°
2026-05-08 11:09 36.42214 5.53225 35059 ft 460 kts 280°
2026-05-08 11:09 36.43149 5.45380 35067 ft 459 kts 280°
2026-05-08 11:10 36.44075 5.37563 35072 ft 459 kts 280°
2026-05-08 11:10 36.44999 5.29724 35074 ft 460 kts 279°
2026-05-08 11:11 36.45913 5.21913 35072 ft 459 kts 279°
2026-05-08 11:11 36.46825 5.14073 35060 ft 459 kts 279°
2026-05-08 11:12 36.47683 5.06211 35054 ft 460 kts 277°
2026-05-08 11:12 36.47988 4.98274 35048 ft 464 kts 270°
2026-05-08 11:13 36.47586 4.90257 35049 ft 468 kts 264°
2026-05-08 11:13 36.46851 4.82267 35052 ft 467 kts 263°